User: anonymous   Login
Location: Unspecified
(0.0000°N, 0.0000°E)
Time: 23:09:50
(UTC+00:00)
Language:

NUSTAR - Orbit

View from above orbital plane
View from above orbital plane
View from above satellite
View from above satellite

Ground track
Ground track

The orbit data is extracted from the following two-line orbital elements,

1 38358U 12031A   21300.08591040  .00001464  00000-0  78596-4 0  9991
2 38358   6.0267 260.6255 0011992 212.9467 146.9914 14.88661961510010
Epoch (UTC): 27 October 2021 02:03:42
Eccentricity: 0.0011992
inclination: 6.0267°
perigee height: 594 km
apogee height: 610 km
right ascension of ascending node: 260.6255°
argument of perigee: 212.9467°
revolutions per day: 14.88661961
mean anomaly at epoch: 146.9914°
orbit number at epoch: 51001

The dashed part of the orbit path shows where the satellite is in the earth's shadow,  

DLR